Casino current weather conditions

sailwx.info

Wind from 070 at 11 knots

Air temperature 28.0° C
Dewpoint 19.0° C

Last reported at 2020-Jan-26 08:00 UTC.
Time now 2020-Jan-26 09:06 UTC

Location: S 28°53' E 153°04'.
View on Google Maps.

See reports from other nearby stations

  
Tides and Currents Weather Stations Pressure Air Temp Water Temp Dewpoint Dewpoint Depression Visibility Wind Speed Wind Dir Waves Ship Positions
date/time (UTC)wind fromknots sea level pressurealtimeterstation pressurevisibilityair tempwater tempwave heightnotes
2020-Jan-26 08:00 070 11 28.0
2020-Jan-26 07:00 080 14 29.0
2020-Jan-26 06:00 080 11 30.0
2020-Jan-26 05:00 090 11 31.0
2020-Jan-26 04:00 090 6 31.0
2020-Jan-26 03:00 360 2 30.0
2020-Jan-26 02:00 060 5 30.0
2020-Jan-26 01:00 020 6 29.0
2020-Jan-26 00:00 050 9 28.0
2020-Jan-25 23:00 040 5 27.0
2020-Jan-25 22:00 210 0 26.0
2020-Jan-25 21:00 300 2 24.0
2020-Jan-25 20:00 22.0
2020-Jan-25 19:00 21.0
2020-Jan-25 18:00 22.0
2020-Jan-25 17:00 100 1 22.0
2020-Jan-25 16:00 070 1 22.0
2020-Jan-25 15:00 23.0
2020-Jan-25 14:00 080 2 24.0
2020-Jan-25 13:00 110 2 24.0
2020-Jan-25 12:00 25.0
2020-Jan-25 11:00 080 2 24.0
2020-Jan-25 10:00 070 5 25.0
2020-Jan-25 09:00 26.0
2020-Jan-25 08:00 020 4 27.0
2020-Jan-25 07:00 070 6 27.0
2020-Jan-25 06:00 070 7 27.0
2020-Jan-25 05:00 040 7 27.0
2020-Jan-25 04:00 080 6 26.0
2020-Jan-25 03:00 080 8 26.0
2020-Jan-25 02:00 110 5 26.0
2020-Jan-25 01:00 120 2 24.0
2020-Jan-25 00:00 250 7 25.0
2020-Jan-24 23:00 090 6 27.0
2020-Jan-24 22:00 150 6 27.0
2020-Jan-24 21:00 110 8 26.0
2020-Jan-24 20:00 100 6 26.0
2020-Jan-24 19:00 350 6 26.0
2020-Jan-24 18:00 350 6 27.0
2020-Jan-24 17:00 330 6 27.0
2020-Jan-24 16:00 340 6 27.0
2020-Jan-24 15:00 350 6 27.0
2020-Jan-24 14:00 350 6 28.0
2020-Jan-24 13:00 350 5 28.0
2020-Jan-24 12:00 28.0
2020-Jan-24 11:00 020 2 29.0
2020-Jan-24 10:00 090 2 29.0
2020-Jan-24 09:00 100 6 30.0